Location: ??????????
(54.8537°N, 38.8755°E)
Time: 14:18:04
(UTC+00:00)

Transit 2A Rocket - Visible Passes

Search period start: 13 September 2024 00:00
Search period end: 23 September 2024 00:00
Orbit: 582 x 910 km, 66.7° (Epoch: 12 September)

Date Brightness Start Highest point End Pass type
(mag) Time Alt. Az. Time Alt. Az. Time Alt. Az.
13 Sep 6.8 01:05:21 10° WNW 01:10:35 29° NNW 01:15:43 10° NE visible
13 Sep 6.8 21:02:21 27° ENE 21:02:21 27° ENE 21:05:28 10° NE visible
13 Sep 5.4 22:42:07 69° NW 22:42:15 69° NW 22:48:21 10° NE visible
14 Sep 6.7 00:21:53 17° WNW 00:25:47 32° NNW 00:31:08 10° NE visible
14 Sep 7.0 02:04:51 10° NW 02:09:58 27° N 02:14:56 10° ENE visible
14 Sep 7.3 20:19:07 16° ENE 20:19:07 16° ENE 20:20:43 10° ENE visible
14 Sep 5.6 21:58:53 64° NE 21:58:53 64° NE 22:03:58 10° NE visible
14 Sep 6.4 23:38:39 28° WNW 23:41:02 38° NNW 23:46:38 10° NE visible
15 Sep 7.0 01:20:01 10° WNW 01:25:06 27° N 01:30:04 10° NE visible
15 Sep 6.3 21:15:38 40° ENE 21:15:38 40° ENE 21:19:32 10° NE visible
15 Sep 6.0 22:55:24 43° WNW 22:56:21 47° NNW 23:02:12 10° NE visible
16 Sep 7.0 00:35:10 10° WNW 00:40:14 28° N 00:45:18 10° NE visible
16 Sep 6.9 02:19:08 10° NW 02:24:28 30° NNE 02:29:33 10° ENE visible
16 Sep 6.9 20:32:21 25° ENE 20:32:21 25° ENE 20:35:01 10° NE visible
16 Sep 5.7 22:12:07 60° NNW 22:12:07 60° NNW 22:17:47 10° NE visible
16 Sep 6.8 23:51:53 18° WNW 23:55:24 30° NNW 00:00:39 10° NE visible
17 Sep 7.0 01:34:28 10° NW 01:39:37 28° N 01:44:35 10° ENE visible
17 Sep 7.4 19:49:03 16° ENE 19:49:03 16° ENE 19:50:20 10° NE visible
17 Sep 5.9 21:28:49 53° NNE 21:28:49 53° NNE 21:33:23 10° NE visible
17 Sep 6.6 23:08:34 28° WNW 23:10:36 35° NNW 23:16:05 10° NE visible
18 Sep 7.1 00:49:39 10° NW 00:54:44 26° N 00:59:40 10° ENE visible
18 Sep 6.5 20:45:28 36° NE 20:45:28 36° NE 20:48:57 10° NE visible
18 Sep 6.2 22:25:14 41° NW 22:25:51 42° NNW 22:31:36 10° NE visible
19 Sep 7.1 00:05:00 11° WNW 00:09:50 27° N 00:14:49 10° NE visible
19 Sep 6.9 01:48:38 10° NW 01:54:01 32° NNE 01:59:08 10° E visible
19 Sep 7.0 20:02:07 23° ENE 20:02:07 23° ENE 20:04:26 10° NE visible
19 Sep 6.0 21:41:53 51° NNW 21:41:53 51° NNW 21:47:09 10° NE visible
19 Sep 6.9 23:21:38 18° WNW 23:24:57 29° NNW 23:30:05 10° NE visible
20 Sep 7.0 01:03:58 10° NW 01:09:10 28° NNE 01:14:09 10° ENE visible
20 Sep 7.4 19:18:44 15° ENE 19:18:44 15° ENE 19:19:49 10° NE visible
20 Sep 6.2 20:58:29 46° NNE 20:58:29 46° NNE 21:02:43 10° NE visible
20 Sep 6.7 22:38:15 27° NW 22:40:05 32° NNW 22:45:27 10° NE visible
21 Sep 7.1 00:19:11 10° NW 00:24:16 27° N 00:29:10 10° ENE visible
21 Sep 6.5 02:02:34 10° NW 02:08:15 42° NNE 02:13:35 10° E visible
21 Sep 6.6 20:15:04 33° NE 20:15:04 33° NE 20:18:15 10° NE visible
21 Sep 6.4 21:54:50 38° NW 21:55:18 39° NNW 22:00:54 10° NE visible
21 Sep 7.1 23:34:35 11° WNW 23:39:21 26° N 23:44:15 10° NE visible
22 Sep 6.8 01:18:01 10° NW 01:23:28 34° NNE 01:28:38 10° E visible
22 Sep 7.0 19:31:38 23° NE 19:31:38 23° NE 19:33:45 10° NE visible
22 Sep 6.2 21:11:22 46° N 21:11:22 46° N 21:16:25 10° NE visible
22 Sep 7.0 22:51:08 18° NW 22:54:25 28° N 22:59:27 10° NE visible
